Temp
32 32 33 34 35 36 37 37 37 37 37 37 37 37 38 38 38 39 39 39 39 40 40 40 40 40 38 37 37 37 37 37 36 36 36 36 36 37 37 37 36 36 36 36 36 36 35 35 36 37 39 38 38 37 37 37 37 36 36 37 37 37 37 37 37 38 38 39 40
32 32 32 32 33 34 35 36 36 37 37 38 38 37 37 37 38 38 38 38 39 40 40 40 39 38 38 37 37 36 36 36 36 36 36 36 36 36 36 36 36 36 36 36 36 36 36 35 36 38 39 39 38 38 37 36 36 36 36 36 37 37 38 38 38 38 38 39 40
32 31 31 31 32 33 35 36 37 36 35 36 36 36 36 37 38 38 39 39 38 38 38 39 38 37 37 37 36 36 36 36 36 36 37 37 36 36 36 36 36 36 36 36 36 37 37 36 37 38 39 41 39 39 38 37 36 36 36 36 37 38 40 41 39 39 39 40 39
31 31 32 32 32 33 34 37 36 35 35 36 35 35 35 36 37 38 38 37 36 37 37 38 36 36 36 36 36 36 36 36 35 35 36 36 36 36 36 36 36 36 36 36 36 36 36 36 37 39 39 39 38 39 40 40 38 38 38 37 38 39 40 41 40 40 41 41 40
31 32 32 33 34 34 34 34 34 35 35 35 35 36 36 36 37 37 37 37 38 39 38 37 36 35 34 35 35 35 35 35 35 35 36 36 36 36 36 35 36 36 36 36 36 36 36 35 37 39 39 38 39 40 39 38 38 38 38 39 39 40 40 40 41 41 41 41 40
33 32 32 32 32 32 33 33 33 34 34 34 34 35 36 38 38 38 38 39 38 37 36 35 35 34 34 34 34 34 34 34 35 35 35 35 35 35 35 35 35 35 36 36 36 36 36 35 37 39 39 40 39 38 38 37 37 37 37 38 39 40 39 40 40 40 40 40 39
34 34 33 33 32 32 32 32 32 32 32 33 33 34 35 36 36 36 36 36 36 36 36 36 36 36 35 35 35 35 35 35 35 34 34 35 35 35 35 35 35 35 35 36 36 36 36 35 37 38 39 40 41 40 38 37 37 37 37 38 40 40 39 38 39 39 39 38 37
33 34 34 34 34 33 33 33 33 33 33 35 34 35 35 35 34 34 34 34 35 36 37 37 36 36 35 35 35 35 35 35 35 35 34 35 35 34 34 34 34 34 34 35 35 35 35 36 37 38 39 39 41 40 39 37 36 36 36 37 39 39 38 38 37 38 38 37 37
33 33 33 33 33 33 34 34 33 33 34 34 34 34 34 34 33 33 34 35 36 36 37 37 37 36 35 34 35 35 36 36 37 37 36 36 36 36 36 36 35 35 35 35 35 35 35 36 37 38 39 40 41 41 40 38 37 37 37 38 38 38 38 38 36 37 37 37 37
34 34 34 34 34 34 34 34 33 33 34 34 34 34 34 34 34 34 35 36 36 36 35 36 36 36 35 35 36 36 37 37 38 38 38 38 38 38 38 38 37 37 37 36 36 35 35 35 36 37 37 38 38 38 38 38 38 38 38 39 39 38 38 38 37 36 37 37 37
35 35 35 35 35 35 34 34 35 35 35 36 35 35 34 34 34 35 36 36 36 35 35 36 36 36 36 37 37 38 38 39 39 40 40 40 40 40 40 40 39 39 39 38 38 37 37 37 37 36 36 37 37 37 37 37 37 37 38 38 38 38 37 37 37 37 36 36 36
35 35 34 35 34 34 34 35 36 36 37 36 36 36 36 36 36 36 36 36 36 36 37 37 37 38 38 39 39 39 40 40 40 40 40 40 40 40 40 40 40 40 39 39 39 39 39 38 38 37 37 37 38 38 37 36 36 36 37 37 37 37 37 37 37 37 37 37 36
35 35 34 34 34 34 34 35 36 37 38 38 37 38 38 38 38 37 37 37 37 38 39 39 39 39 39 40 40 40 40 40 40 40 40 40 40 40 40 40 40 40 39 39 39 39 39 39 38 38 38 37 38 38 38 37 36 36 36 37 37 37 37 37 37 37 37 36 36
34 34 34 35 34 34 35 36 37 38 39 38 38 39 39 39 39 39 38 38 38 39 40 40 40 40 40 40 40 40 40 40 40 39 39 39 39 39 39 39 39 39 39 39 39 39 39 39 38 38 38 38 38 38 38 37 37 37 37 37 36 36 37 37 37 37 36 36 36
34 34 34 35 35 35 36 36 38 39 39 38 39 40 40 40 40 40 39 38 38 39 39 39 40 40 40 39 39 39 39 39 39 38 38 38 38 38 38 38 38 38 38 38 38 38 38 38 38 38 38 38 38 38 38 37 37 37 37 37 37 37 37 37 37 36 36 36 36
35 35 35 35 35 35 36 37 39 40 39 39 39 39 40 40 40 39 38 37 38 38 38 38 38 39 39 39 38 38 38 38 38 38 37 37 37 37 37 37 37 38 38 38 38 38 38 38 38 38 38 38 38 38 38 38 37 37 37 37 37 37 37 37 37 37 36 36 36
35 35 34 34 34 35 36 37 39 39 39 39 39 38 39 39 39 38 38 37 37 37 36 36 37 37 37 37 37 37 37 37 37 37 37 37 37 37 37 37 37 37 37 37 37 37 37 38 38 38 38 38 38 38 38 38 38 38 38 37 37 38 38 38 38 38 37 36 36
34 34 34 34 34 35 36 36 37 38 38 38 38 38 38 38 37 37 37 36 36 35 35 34 35 35 36 35 36 36 36 36 36 36 36 36 36 36 36 36 36 36 36 36 36 36 36 37 37 37 38 38 38 38 38 38 39 39 39 39 38 38 39 39 39 39 39 38 37
34 34 34 34 35 35 36 36 37 37 37 37 37 37 36 36 36 36 36 35 35 35 34 33 33 34 34 34 34 35 35 35 34 35 35 35 35 35 35 35 36 36 36 35 35 35 36 36 36 36 37 37 37 38 38 38 39 39 40 40 40 40 39 39 40 40 40 40 39
33 33 34 34 35 35 36 36 36 36 36 36 36 35 35 35 35 34 34 34 34 34 33 32 32 32 33 33 33 33 34 34 34 34 34 34 34 34 34 35 35 35 35 35 35 35 35 35 36 36 36 36 36 37 37 38 39 39 40 40 40 40 40 40 40 40 40 40 40
33 33 34 34 34 35 35 36 36 36 35 35 34 34 34 33 33 33 33 33 33 33 32 31 31 31 31 32 32 32 33 34 33 33 33 33 33 33 34 34 34 34 34 34 34 34 35 35 35 35 35 35 35 36 36 37 38 38 39 39 40 40 40 41 41 40 40 41 40
33 33 34 34 34 35 35 35 35 35 34 33 33 33 32 32 32 32 32 32 32 31 31 31 31 31 31 31 32 32 32 33 33 33 33 33 33 33 33 34 33 33 33 33 33 33 34 34 34 34 34 34 35 35 35 36 36 37 38 38 39 39 40 40 41 41 41 41 41
33 33 33 34 34 34 34 35 34 34 33 33 33 32 31 31 31 31 31 31 31 30 30 30 31 31 31 31 31 31 31 31 31 32 32 32 32 32 32 33 33 32 32 33 33 33 33 33 33 34 34 34 34 34 34 35 36 36 36 37 38 38 39 39 40 40 41 41 41
32 33 33 35 34 34 34 34 34 33 33 33 33 32 31 30 30 30 30 30 30 29 29 29 30 30 30 30 30 30 30 30 30 30 30 30 31 31 32 33 33 33 33 33 33 33 33 33 33 34 34 34 34 34 35 35 35 36 36 36 37 37 38 38 39 39 40 40 41
32 32 32 33 33 33 33 33 33 33 33 33 33 32 31 30 30 29 29 29 29 29 29 29 29 29 30 30 30 30 30 30 29 29 29 29 30 31 32 33 33 33 33 33 34 35 35 34 34 34 34 34 35 35 34 35 34 35 35 36 36 36 37 37 38 38 39 39 40
31 31 32 32 32 32 32 32 32 32 33 33 33 32 32 31 30 29 29 29 29 29 29 29 29 29 29 29 29 29 29 29 29 29 29 29 29 30 31 32 32 32 32 33 34 34 35 35 35 34 34 34 34 34 34 34 34 34 34 35 35 35 36 36 37 38 38 39 39
30 30 31 32 32 31 32 32 32 32 32 32 32 32 32 32 31 30 29 28 28 28 29 29 29 29 29 29 29 28 29 29 29 30 30 29 29 29 30 31 31 31 31 33 33 34 34 34 34 34 34 33 33 33 33 33 33 34 34 34 35 35 35 35 36 36 37 38 38
29 29 30 30 30 31 31 32 31 32 32 32 32 32 32 31 30 29 29 28 28 28 28 28 29 29 29 30 29 28 28 29 29 29 29 29 29 29 29 30 30 31 32 33 33 34 34 34 34 34 34 32 32 32 32 32 33 33 33 33 34 34 34 35 35 36 36 37 38
28 28 29 29 30 30 31 31 31 31 31 31 31 31 31 30 30 29 29 28 28 28 28 29 29 29 29 29 29 29 29 29 29 29 29 29 29 29 29 30 30 31 32 33 33 33 34 34 34 34 34 33 32 32 32 32 32 32 33 33 33 33 34 34 35 35 35 36 37
28 28 28 28 29 30 30 30 30 30 31 31 31 30 30 29 29 29 29 28 28 28 28 29 29 29 28 28 28 28 29 29 29 29 28 28 28 28 29 29 29 30 31 33 33 33 33 33 33 33 33 33 32 32 32 32 32 32 32 32 32 33 33 34 34 35 35 35 36
27 27 27 28 29 29 29 30 30 30 30 30 30 29 29 29 28 28 28 28 28 28 29 28 28 27 27 28 28 29 29 29 29 28 28 28 28 28 29 29 29 30 31 32 33 33 33 33 33 33 33 33 32 32 32 32 32 32 32 32 32 32 33 33 34 34 35 35 35
27 27 27 28 28 29 29 29 29 29 29 29 28 28 28 28 28 28 28 28 28 28 28 28 27 27 27 28 28 28 28 28 28 28 28 28 28 28 28 28 29 29 30 32 32 33 33 33 33 33 33 33 32 32 31 31 32 32 32 32 32 32 32 33 33 34 35 35 35
26 26 27 28 28 28 29 29 28 28 28 27 27 27 27 28 28 28 28 28 28 27 27 27 27 27 27 27 27 28 28 28 27 28 28 28 28 28 28 28 29 30 31 32 32 33 33 33 33 33 33 33 32 32 31 31 31 31 31 32 32 32 32 32 32 33 34 35 35
25 26 27 27 28 28 28 27 27 26 26 26 26 27 27 27 27 27 27 27 27 27 28 28 27 27 27 27 27 27 27 27 27 27 27 28 28 28 28 28 28 30 31 32 32 32 33 33 33 33 33 33 32 31 31 31 31 31 31 31 32 32 32 32 32 33 34 34 35
25 26 26 26 27 27 27 26 26 25 25 25 25 26 26 26 26 26 26 27 27 27 27 27 27 27 27 27 27 27 27 26 26 27 27 27 28 27 27 28 28 30 31 32 32 32 33 33 33 33 33 32 32 31 31 31 31 31 31 31 31 32 32 32 32 33 33 34 34
25 25 24 24 25 26 26 25 25 25 25 24 24 24 24 25 25 26 26 27 27 27 27 26 27 27 27 27 27 27 27 27 26 27 27 27 27 27 27 27 28 29 31 32 32 32 33 33 33 33 33 32 31 31 31 31 30 30 31 31 31 31 32 32 32 32 33 34 34
25 24 24 24 25 25 25 25 25 25 24 24 24 24 24 25 25 26 27 28 27 27 26 26 26 26 26 27 27 27 27 27 27 27 27 27 27 27 27 27 28 29 30 31 32 32 33 33 33 33 33 32 31 31 31 30 30 30 30 30 31 31 31 32 32 32 33 33 34
25 24 24 24 24 24 24 24 24 24 23 24 24 24 25 26 26 27 27 28 27 26 26 26 26 26 26 27 27 27 27 27 27 27 27 27 27 27 27 27 28 29 30 31 32 33 33 33 33 33 33 32 31 31 30 30 30 30 30 30 31 31 31 32 32 32 32 33 34
25 24 24 24 24 24 24 24 23 23 23 24 24 25 25 26 26 27 28 28 27 27 26 26 26 26 26 27 27 27 27 27 27 27 27 27 27 28 28 27 28 29 30 31 32 33 33 33 34 34 33 32 32 31 31 30 30 30 30 30 30 31 31 32 32 32 32 32 34
24 24 24 24 23 23 23 23 23 23 24 24 24 25 26 26 27 27 28 28 27 27 26 26 26 26 27 27 27 27 26 27 27 27 27 27 28 29 29 28 28 29 30 31 32 33 33 34 34 34 34 33 32 32 31 31 30 30 29 30 30 30 31 31 32 32 32 32 33
24 24 23 23 23 23 23 23 23 23 24 24 25 26 27 27 27 27 27 27 27 27 27 26 26 27 27 27 27 26 26 26 27 27 27 27 28 29 29 29 29 29 30 31 32 33 34 34 35 35 35 33 33 33 32 31 30 29 29 29 30 30 30 31 31 32 32 32 32
MSLP
1017.81 1017.77 1017.73 1017.73 1017.69 1017.69 1017.69 1017.61 1017.57 1017.57 1017.57 1017.57 1017.53 1017.45 1017.41 1017.41 1017.37 1017.25 1017.17 1017.13 1017.05 1016.97 1016.85 1016.69 1016.65 1016.57 1016.49 1016.41 1016.41 1016.37 1016.29 1016.21 1016.17 1016.13 1016.05 1015.97 1015.85 1015.77 1015.65 1015.57 1015.45 1015.41 1015.37 1015.29 1015.21 1015.13 1015.13 1015.09 1015.13 1015.01 1014.89 1014.81 1014.69 1014.57 1014.49 1014.41 1014.41 1014.41 1014.41 1014.41 1014.41 1014.37 1014.33 1014.33 1014.29 1014.21 1014.17 1014.13 1014.09
1017.69 1017.69 1017.69 1017.69 1017.69 1017.65 1017.61 1017.57 1017.49 1017.45 1017.41 1017.37 1017.29 1017.25 1017.25 1017.21 1017.17 1017.13 1016.97 1016.93 1016.81 1016.69 1016.57 1016.49 1016.41 1016.41 1016.33 1016.25 1016.21 1016.17 1016.17 1016.13 1016.05 1015.97 1015.97 1015.89 1015.77 1015.69 1015.61 1015.53 1015.41 1015.33 1015.25 1015.25 1015.17 1015.09 1015.01 1014.97 1014.97 1014.89 1014.73 1014.57 1014.49 1014.41 1014.29 1014.21 1014.17 1014.21 1014.21 1014.21 1014.13 1014.13 1014.09 1014.05 1013.97 1013.97 1013.93 1013.89 1013.85
1017.61 1017.61 1017.61 1017.61 1017.65 1017.61 1017.57 1017.53 1017.41 1017.37 1017.29 1017.25 1017.17 1017.13 1017.09 1017.09 1017.01 1016.93 1016.85 1016.69 1016.57 1016.53 1016.45 1016.37 1016.29 1016.21 1016.17 1016.09 1016.01 1015.97 1015.97 1015.93 1015.89 1015.89 1015.85 1015.73 1015.65 1015.57 1015.53 1015.45 1015.37 1015.25 1015.17 1015.13 1015.09 1014.97 1014.89 1014.85 1014.85 1014.73 1014.57 1014.41 1014.37 1014.25 1014.13 1014.01 1013.97 1013.97 1013.97 1013.97 1013.85 1013.85 1013.81 1013.73 1013.69 1013.69 1013.65 1013.61 1013.61
1017.57 1017.57 1017.57 1017.57 1017.57 1017.57 1017.49 1017.41 1017.33 1017.25 1017.17 1017.09 1017.01 1016.97 1016.93 1016.89 1016.85 1016.73 1016.61 1016.53 1016.45 1016.41 1016.29 1016.17 1016.13 1016.05 1015.97 1015.93 1015.85 1015.85 1015.81 1015.77 1015.77 1015.77 1015.69 1015.61 1015.53 1015.41 1015.37 1015.29 1015.25 1015.13 1015.01 1014.97 1014.89 1014.81 1014.73 1014.69 1014.69 1014.57 1014.41 1014.29 1014.17 1014.05 1013.89 1013.77 1013.77 1013.73 1013.69 1013.61 1013.57 1013.57 1013.53 1013.45 1013.41 1013.41 1013.41 1013.37 1013.37
1017.57 1017.53 1017.45 1017.41 1017.41 1017.37 1017.33 1017.29 1017.25 1017.13 1017.05 1016.97 1016.89 1016.85 1016.81 1016.69 1016.61 1016.57 1016.45 1016.41 1016.29 1016.13 1016.05 1015.97 1015.93 1015.85 1015.81 1015.77 1015.69 1015.69 1015.61 1015.61 1015.57 1015.57 1015.53 1015.45 1015.37 1015.25 1015.17 1015.13 1015.09 1014.97 1014.85 1014.81 1014.69 1014.65 1014.57 1014.57 1014.49 1014.41 1014.25 1014.13 1013.97 1013.81 1013.65 1013.57 1013.57 1013.49 1013.41 1013.33 1013.25 1013.25 1013.25 1013.21 1013.13 1013.13 1013.13 1013.13 1013.13
1017.45 1017.41 1017.37 1017.33 1017.33 1017.25 1017.21 1017.13 1017.09 1016.97 1016.93 1016.85 1016.85 1016.77 1016.69 1016.53 1016.41 1016.37 1016.29 1016.21 1016.09 1015.97 1015.89 1015.85 1015.77 1015.69 1015.65 1015.57 1015.57 1015.49 1015.45 1015.41 1015.37 1015.33 1015.29 1015.25 1015.13 1015.05 1014.97 1014.89 1014.85 1014.73 1014.69 1014.57 1014.49 1014.41 1014.37 1014.33 1014.29 1014.17 1014.01 1013.85 1013.73 1013.57 1013.45 1013.41 1013.37 1013.29 1013.21 1013.13 1013.05 1012.97 1012.97 1012.93 1012.89 1012.85 1012.85 1012.85 1012.85
1017.37 1017.29 1017.25 1017.25 1017.25 1017.17 1017.13 1017.01 1016.93 1016.85 1016.85 1016.77 1016.73 1016.65 1016.53 1016.41 1016.29 1016.25 1016.17 1016.09 1015.97 1015.85 1015.77 1015.69 1015.65 1015.57 1015.53 1015.45 1015.41 1015.37 1015.29 1015.25 1015.17 1015.13 1015.13 1015.01 1014.93 1014.85 1014.77 1014.69 1014.61 1014.57 1014.45 1014.37 1014.29 1014.21 1014.13 1014.13 1014.09 1013.93 1013.77 1013.61 1013.45 1013.29 1013.25 1013.21 1013.17 1013.13 1013.05 1012.93 1012.77 1012.69 1012.69 1012.69 1012.61 1012.65 1012.65 1012.65 1012.65
1017.33 1017.25 1017.17 1017.13 1017.09 1017.01 1016.97 1016.85 1016.81 1016.73 1016.69 1016.61 1016.57 1016.49 1016.37 1016.29 1016.21 1016.13 1016.05 1015.97 1015.89 1015.81 1015.69 1015.57 1015.53 1015.45 1015.41 1015.37 1015.29 1015.25 1015.13 1015.09 1015.01 1014.93 1014.85 1014.81 1014.69 1014.61 1014.57 1014.49 1014.41 1014.29 1014.25 1014.13 1014.09 1013.97 1013.93 1013.89 1013.85 1013.69 1013.49 1013.41 1013.21 1013.05 1012.93 1012.97 1012.89 1012.85 1012.85 1012.69 1012.57 1012.49 1012.41 1012.41 1012.41 1012.41 1012.41 1012.41 1012.41
1017.25 1017.17 1017.09 1016.97 1016.93 1016.85 1016.77 1016.69 1016.65 1016.61 1016.57 1016.49 1016.41 1016.33 1016.25 1016.17 1016.13 1016.05 1015.97 1015.85 1015.73 1015.61 1015.53 1015.41 1015.37 1015.29 1015.25 1015.25 1015.17 1015.09 1014.97 1014.89 1014.81 1014.69 1014.61 1014.53 1014.45 1014.37 1014.29 1014.21 1014.13 1014.01 1013.93 1013.85 1013.85 1013.77 1013.69 1013.65 1013.57 1013.41 1013.21 1013.05 1012.89 1012.73 1012.65 1012.61 1012.57 1012.57 1012.49 1012.41 1012.29 1012.21 1012.13 1012.13 1012.13 1012.13 1012.13 1012.13 1012.13
1017.13 1017.01 1016.93 1016.85 1016.77 1016.69 1016.65 1016.57 1016.53 1016.49 1016.45 1016.41 1016.29 1016.21 1016.13 1016.05 1015.97 1015.93 1015.85 1015.69 1015.57 1015.49 1015.41 1015.33 1015.25 1015.17 1015.13 1015.05 1014.97 1014.85 1014.77 1014.69 1014.57 1014.45 1014.33 1014.25 1014.17 1014.09 1013.97 1013.89 1013.81 1013.69 1013.61 1013.57 1013.49 1013.45 1013.41 1013.41 1013.25 1013.09 1012.89 1012.77 1012.65 1012.49 1012.33 1012.29 1012.29 1012.21 1012.13 1012.01 1011.97 1011.89 1011.81 1011.81 1011.81 1011.85 1011.85 1011.85 1011.85
1016.97 1016.85 1016.81 1016.73 1016.65 1016.57 1016.53 1016.49 1016.45 1016.41 1016.37 1016.29 1016.17 1016.09 1016.01 1015.97 1015.85 1015.73 1015.61 1015.49 1015.45 1015.37 1015.25 1015.17 1015.13 1015.01 1014.93 1014.85 1014.77 1014.65 1014.53 1014.41 1014.29 1014.17 1014.05 1013.97 1013.85 1013.73 1013.65 1013.53 1013.45 1013.37 1013.25 1013.17 1013.13 1013.13 1013.09 1013.05 1012.93 1012.81 1012.61 1012.45 1012.41 1012.29 1012.13 1012.05 1011.97 1011.93 1011.81 1011.69 1011.65 1011.57 1011.53 1011.45 1011.49 1011.53 1011.53 1011.53 1011.53
1016.85 1016.77 1016.69 1016.61 1016.57 1016.53 1016.49 1016.49 1016.41 1016.37 1016.29 1016.21 1016.09 1015.97 1015.85 1015.77 1015.65 1015.53 1015.41 1015.33 1015.29 1015.17 1015.01 1014.93 1014.89 1014.85 1014.69 1014.57 1014.45 1014.33 1014.21 1014.13 1014.05 1013.93 1013.85 1013.69 1013.57 1013.45 1013.37 1013.25 1013.17 1013.09 1012.97 1012.89 1012.85 1012.81 1012.73 1012.61 1012.53 1012.41 1012.29 1012.13 1012.05 1011.97 1011.85 1011.77 1011.73 1011.65 1011.49 1011.37 1011.33 1011.29 1011.21 1011.13 1011.13 1011.13 1011.17 1011.21 1011.21
1016.77 1016.73 1016.65 1016.57 1016.57 1016.53 1016.49 1016.45 1016.41 1016.29 1016.13 1016.05 1015.93 1015.81 1015.69 1015.53 1015.41 1015.29 1015.25 1015.17 1015.05 1014.93 1014.81 1014.69 1014.65 1014.57 1014.45 1014.33 1014.21 1014.13 1014.01 1013.93 1013.85 1013.73 1013.61 1013.49 1013.37 1013.25 1013.13 1012.97 1012.89 1012.77 1012.69 1012.57 1012.53 1012.45 1012.41 1012.29 1012.17 1012.05 1011.93 1011.81 1011.69 1011.57 1011.45 1011.41 1011.41 1011.29 1011.17 1011.09 1011.01 1010.97 1010.85 1010.77 1010.77 1010.81 1010.81 1010.85 1010.85
1016.73 1016.69 1016.61 1016.57 1016.57 1016.53 1016.45 1016.41 1016.29 1016.13 1016.01 1015.85 1015.73 1015.57 1015.45 1015.33 1015.17 1015.13 1015.05 1014.97 1014.85 1014.73 1014.65 1014.53 1014.41 1014.29 1014.25 1014.13 1014.05 1013.97 1013.85 1013.77 1013.69 1013.57 1013.41 1013.25 1013.13 1013.01 1012.89 1012.73 1012.61 1012.53 1012.41 1012.29 1012.21 1012.13 1012.09 1011.97 1011.85 1011.73 1011.61 1011.45 1011.33 1011.21 1011.13 1011.09 1010.97 1010.89 1010.81 1010.73 1010.69 1010.57 1010.45 1010.41 1010.41 1010.41 1010.45 1010.49 1010.45
1016.73 1016.69 1016.61 1016.57 1016.49 1016.45 1016.41 1016.29 1016.13 1015.97 1015.85 1015.69 1015.57 1015.41 1015.29 1015.13 1015.01 1014.93 1014.89 1014.85 1014.73 1014.65 1014.53 1014.41 1014.29 1014.13 1014.05 1013.97 1013.89 1013.81 1013.69 1013.61 1013.49 1013.37 1013.21 1013.05 1012.93 1012.77 1012.65 1012.53 1012.37 1012.29 1012.13 1012.01 1011.93 1011.85 1011.73 1011.61 1011.53 1011.41 1011.29 1011.13 1011.01 1010.89 1010.81 1010.73 1010.65 1010.53 1010.45 1010.37 1010.25 1010.13 1010.09 1010.01 1010.01 1010.09 1010.13 1010.13 1010.13
1016.69 1016.65 1016.57 1016.53 1016.41 1016.37 1016.29 1016.13 1015.97 1015.85 1015.69 1015.57 1015.41 1015.29 1015.17 1015.01 1014.89 1014.85 1014.81 1014.73 1014.61 1014.53 1014.41 1014.33 1014.21 1014.05 1013.89 1013.81 1013.73 1013.65 1013.57 1013.41 1013.29 1013.17 1013.01 1012.85 1012.69 1012.53 1012.41 1012.29 1012.13 1011.97 1011.85 1011.77 1011.61 1011.53 1011.41 1011.25 1011.17 1011.09 1010.97 1010.85 1010.69 1010.57 1010.49 1010.41 1010.29 1010.21 1010.09 1009.97 1009.85 1009.77 1009.69 1009.65 1009.69 1009.69 1009.69 1009.69 1009.73
1016.69 1016.57 1016.53 1016.45 1016.33 1016.25 1016.13 1016.01 1015.85 1015.69 1015.57 1015.41 1015.29 1015.21 1015.13 1014.97 1014.85 1014.77 1014.73 1014.69 1014.57 1014.45 1014.33 1014.21 1014.13 1013.97 1013.81 1013.65 1013.57 1013.53 1013.41 1013.25 1013.13 1012.97 1012.81 1012.61 1012.45 1012.29 1012.13 1011.97 1011.85 1011.69 1011.57 1011.49 1011.33 1011.21 1011.05 1010.93 1010.85 1010.73 1010.65 1010.57 1010.41 1010.29 1010.13 1010.05 1009.93 1009.85 1009.69 1009.61 1009.53 1009.41 1009.33 1009.25 1009.25 1009.25 1009.29 1009.29 1009.29
1016.57 1016.49 1016.41 1016.33 1016.25 1016.13 1015.97 1015.85 1015.73 1015.61 1015.49 1015.37 1015.25 1015.13 1015.05 1014.97 1014.85 1014.73 1014.65 1014.57 1014.49 1014.41 1014.29 1014.13 1013.97 1013.85 1013.73 1013.57 1013.41 1013.33 1013.25 1013.09 1012.89 1012.73 1012.57 1012.37 1012.25 1012.05 1011.89 1011.69 1011.57 1011.45 1011.33 1011.21 1011.09 1010.93 1010.77 1010.61 1010.53 1010.45 1010.37 1010.25 1010.13 1009.97 1009.85 1009.69 1009.57 1009.45 1009.33 1009.21 1009.13 1009.01 1008.93 1008.85 1008.85 1008.81 1008.81 1008.85 1008.81
1016.53 1016.41 1016.33 1016.25 1016.13 1015.97 1015.89 1015.77 1015.69 1015.57 1015.41 1015.29 1015.21 1015.09 1014.97 1014.85 1014.81 1014.69 1014.57 1014.41 1014.37 1014.29 1014.17 1014.01 1013.85 1013.69 1013.57 1013.41 1013.25 1013.13 1012.97 1012.85 1012.69 1012.45 1012.29 1012.13 1011.97 1011.81 1011.61 1011.45 1011.29 1011.21 1011.09 1010.97 1010.77 1010.61 1010.49 1010.33 1010.21 1010.13 1010.05 1009.93 1009.81 1009.69 1009.57 1009.41 1009.25 1009.09 1008.93 1008.81 1008.69 1008.57 1008.49 1008.41 1008.37 1008.33 1008.33 1008.33 1008.29
1016.49 1016.37 1016.25 1016.13 1015.97 1015.89 1015.81 1015.69 1015.57 1015.45 1015.33 1015.25 1015.13 1015.01 1014.93 1014.81 1014.69 1014.61 1014.49 1014.33 1014.17 1014.13 1014.01 1013.89 1013.73 1013.57 1013.33 1013.17 1013.05 1012.89 1012.73 1012.57 1012.41 1012.21 1012.01 1011.85 1011.69 1011.53 1011.33 1011.21 1011.09 1010.93 1010.81 1010.69 1010.49 1010.33 1010.21 1010.09 1009.97 1009.85 1009.73 1009.65 1009.53 1009.37 1009.25 1009.09 1008.89 1008.73 1008.57 1008.41 1008.29 1008.13 1008.01 1007.93 1007.85 1007.85 1007.85 1007.81 1007.81
1016.33 1016.25 1016.13 1015.97 1015.89 1015.85 1015.73 1015.57 1015.49 1015.41 1015.29 1015.21 1015.13 1014.97 1014.85 1014.73 1014.61 1014.49 1014.37 1014.21 1014.01 1013.93 1013.85 1013.73 1013.57 1013.41 1013.17 1012.97 1012.81 1012.61 1012.41 1012.25 1012.13 1011.93 1011.69 1011.57 1011.37 1011.21 1011.05 1010.97 1010.85 1010.69 1010.49 1010.33 1010.21 1010.09 1009.93 1009.81 1009.69 1009.57 1009.45 1009.37 1009.25 1009.05 1008.93 1008.77 1008.57 1008.41 1008.21 1008.01 1007.85 1007.69 1007.57 1007.45 1007.41 1007.33 1007.29 1007.25 1007.29
1016.21 1016.13 1016.01 1015.93 1015.85 1015.73 1015.61 1015.49 1015.41 1015.33 1015.25 1015.13 1015.01 1014.89 1014.73 1014.65 1014.49 1014.33 1014.17 1014.01 1013.89 1013.81 1013.69 1013.53 1013.37 1013.17 1012.97 1012.77 1012.57 1012.33 1012.13 1011.93 1011.77 1011.57 1011.41 1011.25 1011.09 1010.89 1010.77 1010.69 1010.57 1010.41 1010.21 1010.01 1009.93 1009.81 1009.69 1009.57 1009.41 1009.33 1009.25 1009.09 1008.93 1008.73 1008.57 1008.45 1008.29 1008.09 1007.89 1007.69 1007.49 1007.33 1007.21 1007.09 1006.97 1006.89 1006.85 1006.81 1006.77
1016.09 1016.01 1015.93 1015.85 1015.69 1015.61 1015.53 1015.41 1015.33 1015.25 1015.13 1015.01 1014.89 1014.77 1014.61 1014.49 1014.29 1014.13 1013.97 1013.85 1013.73 1013.57 1013.41 1013.25 1013.09 1012.93 1012.73 1012.57 1012.37 1012.13 1011.89 1011.69 1011.41 1011.21 1011.09 1010.97 1010.85 1010.69 1010.53 1010.45 1010.29 1010.13 1009.89 1009.69 1009.57 1009.49 1009.41 1009.25 1009.13 1009.01 1008.89 1008.77 1008.57 1008.41 1008.29 1008.13 1007.97 1007.81 1007.61 1007.41 1007.25 1007.05 1006.89 1006.73 1006.61 1006.53 1006.41 1006.33 1006.29
1016.01 1015.93 1015.85 1015.69 1015.61 1015.53 1015.41 1015.33 1015.25 1015.13 1015.05 1014.89 1014.77 1014.61 1014.45 1014.29 1014.13 1013.93 1013.77 1013.61 1013.45 1013.33 1013.21 1013.01 1012.85 1012.65 1012.41 1012.29 1012.09 1011.89 1011.69 1011.41 1011.13 1010.85 1010.69 1010.57 1010.49 1010.41 1010.25 1010.13 1009.93 1009.73 1009.53 1009.33 1009.25 1009.17 1009.09 1008.97 1008.81 1008.65 1008.49 1008.33 1008.17 1007.97 1007.81 1007.69 1007.53 1007.41 1007.25 1007.05 1006.89 1006.73 1006.57 1006.41 1006.29 1006.17 1006.05 1005.93 1005.89
1015.97 1015.85 1015.77 1015.65 1015.57 1015.45 1015.37 1015.25 1015.17 1015.05 1014.93 1014.73 1014.57 1014.45 1014.29 1014.13 1013.93 1013.77 1013.57 1013.41 1013.21 1013.05 1012.93 1012.73 1012.57 1012.37 1012.17 1011.97 1011.73 1011.57 1011.33 1011.13 1010.85 1010.61 1010.41 1010.21 1010.13 1010.01 1009.89 1009.73 1009.57 1009.37 1009.17 1008.97 1008.85 1008.77 1008.69 1008.61 1008.49 1008.29 1008.13 1007.97 1007.81 1007.57 1007.41 1007.25 1007.13 1006.97 1006.81 1006.65 1006.53 1006.37 1006.21 1006.05 1005.93 1005.81 1005.69 1005.57 1005.53
1015.89 1015.81 1015.69 1015.57 1015.49 1015.41 1015.33 1015.25 1015.13 1014.97 1014.81 1014.61 1014.41 1014.29 1014.09 1013.89 1013.73 1013.57 1013.41 1013.17 1012.97 1012.77 1012.61 1012.45 1012.29 1012.09 1011.85 1011.65 1011.41 1011.13 1010.97 1010.81 1010.61 1010.41 1010.13 1009.93 1009.73 1009.65 1009.57 1009.41 1009.25 1009.05 1008.85 1008.69 1008.53 1008.41 1008.33 1008.25 1008.13 1008.05 1007.93 1007.69 1007.53 1007.29 1007.09 1006.89 1006.73 1006.57 1006.45 1006.29 1006.13 1006.01 1005.85 1005.65 1005.49 1005.41 1005.29 1005.25 1005.17
1015.81 1015.69 1015.57 1015.49 1015.41 1015.33 1015.25 1015.13 1014.97 1014.85 1014.69 1014.49 1014.33 1014.13 1013.89 1013.69 1013.57 1013.37 1013.17 1012.97 1012.77 1012.57 1012.37 1012.17 1011.97 1011.81 1011.57 1011.29 1011.09 1010.85 1010.65 1010.45 1010.29 1010.13 1009.89 1009.69 1009.53 1009.37 1009.25 1009.09 1008.93 1008.77 1008.57 1008.37 1008.21 1008.09 1007.97 1007.89 1007.81 1007.69 1007.65 1007.49 1007.29 1007.09 1006.85 1006.61 1006.45 1006.29 1006.17 1006.01 1005.85 1005.69 1005.49 1005.29 1005.13 1004.97 1004.93 1004.89 1004.85
1015.73 1015.65 1015.57 1015.45 1015.37 1015.25 1015.09 1014.97 1014.85 1014.69 1014.53 1014.37 1014.17 1013.97 1013.73 1013.57 1013.37 1013.17 1012.97 1012.77 1012.53 1012.33 1012.13 1011.93 1011.69 1011.49 1011.25 1011.01 1010.77 1010.57 1010.41 1010.25 1010.05 1009.85 1009.69 1009.49 1009.29 1009.13 1008.97 1008.81 1008.57 1008.41 1008.17 1007.97 1007.85 1007.69 1007.57 1007.41 1007.33 1007.25 1007.17 1007.13 1006.97 1006.81 1006.61 1006.41 1006.21 1006.05 1005.89 1005.73 1005.57 1005.37 1005.17 1004.97 1004.85 1004.69 1004.61 1004.57 1004.49
1015.69 1015.61 1015.53 1015.41 1015.29 1015.13 1014.97 1014.89 1014.69 1014.57 1014.41 1014.21 1013.97 1013.77 1013.57 1013.41 1013.13 1012.93 1012.69 1012.53 1012.33 1012.13 1011.89 1011.69 1011.41 1011.21 1010.97 1010.77 1010.57 1010.37 1010.17 1009.97 1009.81 1009.65 1009.41 1009.25 1009.01 1008.85 1008.61 1008.41 1008.21 1007.97 1007.73 1007.57 1007.37 1007.21 1007.05 1006.93 1006.85 1006.73 1006.69 1006.61 1006.57 1006.41 1006.17 1005.97 1005.81 1005.65 1005.49 1005.37 1005.21 1005.05 1004.89 1004.69 1004.57 1004.41 1004.33 1004.29 1004.21
1015.65 1015.57 1015.49 1015.37 1015.21 1015.05 1014.89 1014.73 1014.57 1014.41 1014.21 1014.01 1013.85 1013.61 1013.41 1013.17 1012.97 1012.69 1012.49 1012.29 1012.13 1011.89 1011.69 1011.45 1011.25 1011.01 1010.81 1010.57 1010.41 1010.17 1009.97 1009.69 1009.53 1009.37 1009.17 1008.93 1008.69 1008.45 1008.25 1008.01 1007.85 1007.57 1007.25 1007.05 1006.89 1006.69 1006.53 1006.41 1006.29 1006.21 1006.13 1006.09 1006.09 1005.97 1005.73 1005.53 1005.33 1005.17 1005.05 1004.89 1004.77 1004.69 1004.57 1004.41 1004.29 1004.13 1004.01 1003.97 1003.93
1015.57 1015.53 1015.41 1015.29 1015.13 1014.97 1014.77 1014.57 1014.41 1014.25 1014.05 1013.85 1013.65 1013.45 1013.25 1012.97 1012.73 1012.53 1012.33 1012.13 1011.89 1011.65 1011.41 1011.25 1011.09 1010.85 1010.57 1010.37 1010.17 1009.97 1009.69 1009.45 1009.25 1009.09 1008.89 1008.69 1008.41 1008.13 1007.85 1007.61 1007.37 1007.09 1006.85 1006.57 1006.41 1006.21 1005.97 1005.85 1005.73 1005.65 1005.57 1005.53 1005.53 1005.41 1005.21 1004.97 1004.85 1004.69 1004.53 1004.41 1004.29 1004.21 1004.17 1004.13 1003.97 1003.81 1003.69 1003.61 1003.57
1015.57 1015.49 1015.41 1015.25 1015.05 1014.85 1014.65 1014.41 1014.29 1014.09 1013.89 1013.73 1013.53 1013.25 1013.05 1012.85 1012.57 1012.33 1012.13 1011.97 1011.73 1011.45 1011.25 1011.01 1010.81 1010.57 1010.29 1010.05 1009.85 1009.65 1009.41 1009.21 1008.97 1008.77 1008.57 1008.33 1008.05 1007.73 1007.41 1007.17 1006.89 1006.61 1006.33 1006.13 1005.85 1005.65 1005.45 1005.29 1005.17 1005.05 1004.97 1004.89 1004.93 1004.81 1004.65 1004.45 1004.29 1004.13 1003.97 1003.85 1003.77 1003.73 1003.73 1003.69 1003.61 1003.49 1003.37 1003.25 1003.13
1015.53 1015.41 1015.33 1015.17 1014.97 1014.73 1014.53 1014.33 1014.13 1013.97 1013.77 1013.57 1013.33 1013.13 1012.85 1012.61 1012.33 1012.13 1011.89 1011.69 1011.57 1011.33 1011.09 1010.81 1010.57 1010.29 1010.05 1009.85 1009.57 1009.33 1009.13 1008.89 1008.69 1008.41 1008.17 1007.97 1007.69 1007.37 1007.01 1006.69 1006.41 1006.13 1005.81 1005.57 1005.29 1005.09 1004.89 1004.73 1004.57 1004.41 1004.33 1004.29 1004.25 1004.13 1004.01 1003.89 1003.69 1003.57 1003.41 1003.25 1003.17 1003.13 1003.17 1003.21 1003.17 1003.13 1003.05 1002.97 1002.85
1015.45 1015.37 1015.21 1015.05 1014.85 1014.61 1014.41 1014.21 1014.01 1013.85 1013.61 1013.41 1013.13 1012.93 1012.69 1012.49 1012.21 1011.97 1011.69 1011.49 1011.33 1011.13 1010.85 1010.57 1010.41 1010.13 1009.89 1009.65 1009.41 1009.13 1008.85 1008.57 1008.29 1008.05 1007.77 1007.53 1007.25 1006.97 1006.61 1006.25 1005.93 1005.57 1005.29 1005.05 1004.77 1004.57 1004.33 1004.13 1003.97 1003.81 1003.65 1003.57 1003.57 1003.49 1003.33 1003.21 1003.05 1002.89 1002.73 1002.61 1002.57 1002.57 1002.57 1002.61 1002.61 1002.61 1002.65 1002.65 1002.57
1015.41 1015.29 1015.13 1014.93 1014.69 1014.49 1014.29 1014.09 1013.89 1013.69 1013.45 1013.21 1012.93 1012.69 1012.49 1012.29 1012.13 1011.85 1011.57 1011.33 1011.13 1010.85 1010.57 1010.33 1010.13 1009.93 1009.69 1009.41 1009.17 1008.93 1008.61 1008.29 1007.97 1007.69 1007.37 1007.13 1006.85 1006.53 1006.13 1005.73 1005.37 1005.05 1004.81 1004.53 1004.29 1003.97 1003.77 1003.57 1003.33 1003.13 1002.97 1002.93 1002.85 1002.81 1002.69 1002.53 1002.37 1002.21 1002.05 1001.97 1001.93 1001.89 1001.93 1001.97 1002.01 1002.05 1002.09 1002.17 1002.21
1015.37 1015.25 1015.09 1014.89 1014.65 1014.41 1014.17 1013.97 1013.77 1013.53 1013.25 1013.05 1012.77 1012.53 1012.29 1012.09 1011.85 1011.65 1011.41 1011.17 1010.85 1010.57 1010.29 1010.05 1009.85 1009.61 1009.37 1009.09 1008.85 1008.57 1008.29 1007.97 1007.61 1007.25 1006.97 1006.69 1006.41 1006.09 1005.69 1005.25 1004.85 1004.53 1004.21 1003.97 1003.69 1003.45 1003.21 1002.97 1002.69 1002.49 1002.37 1002.29 1002.17 1002.09 1001.93 1001.77 1001.65 1001.45 1001.33 1001.29 1001.21 1001.17 1001.25 1001.33 1001.41 1001.45 1001.53 1001.61 1001.69
1015.25 1015.17 1015.05 1014.85 1014.57 1014.29 1014.09 1013.89 1013.69 1013.41 1013.13 1012.85 1012.61 1012.41 1012.13 1011.89 1011.57 1011.33 1011.13 1010.97 1010.69 1010.37 1010.05 1009.77 1009.57 1009.29 1009.05 1008.81 1008.49 1008.17 1007.89 1007.61 1007.29 1006.93 1006.57 1006.25 1005.97 1005.69 1005.25 1004.81 1004.37 1003.97 1003.65 1003.41 1003.13 1002.85 1002.61 1002.37 1002.09 1001.85 1001.69 1001.61 1001.49 1001.37 1001.21 1001.09 1000.89 1000.73 1000.65 1000.57 1000.49 1000.49 1000.57 1000.69 1000.77 1000.85 1000.93 1000.97 1001.09
1015.13 1015.09 1014.93 1014.73 1014.53 1014.25 1014.01 1013.77 1013.57 1013.33 1013.05 1012.73 1012.45 1012.21 1011.97 1011.69 1011.41 1011.13 1010.97 1010.81 1010.53 1010.21 1009.85 1009.53 1009.29 1009.01 1008.77 1008.53 1008.17 1007.85 1007.49 1007.25 1006.97 1006.61 1006.25 1005.85 1005.53 1005.25 1004.85 1004.41 1003.93 1003.49 1003.09 1002.81 1002.53 1002.29 1002.01 1001.77 1001.45 1001.25 1001.09 1000.97 1000.85 1000.69 1000.53 1000.41 1000.21 1000.05 999.93 999.85 999.81 999.85 999.89 1000.01 1000.13 1000.21 1000.29 1000.37 1000.45
1015.05 1014.97 1014.85 1014.65 1014.41 1014.21 1013.97 1013.69 1013.45 1013.21 1012.93 1012.61 1012.29 1011.97 1011.73 1011.53 1011.25 1010.97 1010.77 1010.61 1010.37 1010.09 1009.77 1009.41 1009.05 1008.73 1008.49 1008.25 1007.89 1007.49 1007.13 1006.81 1006.57 1006.25 1005.89 1005.49 1005.13 1004.81 1004.49 1004.09 1003.53 1002.97 1002.57 1002.25 1001.97 1001.69 1001.41 1001.13 1000.85 1000.57 1000.41 1000.29 1000.13 999.97 999.85 999.65 999.45 999.29 999.21 999.17 999.17 999.17 999.25 999.37 999.49 999.57 999.61 999.69 999.85
1014.93 1014.85 1014.69 1014.57 1014.37 1014.13 1013.85 1013.61 1013.33 1013.09 1012.81 1012.53 1012.17 1011.85 1011.57 1011.29 1011.05 1010.81 1010.57 1010.41 1010.17 1009.93 1009.61 1009.25 1008.85 1008.53 1008.21 1007.97 1007.65 1007.25 1006.81 1006.41 1006.09 1005.81 1005.49 1005.13 1004.69 1004.37 1004.01 1003.65 1003.13 1002.57 1002.13 1001.73 1001.41 1001.13 1000.85 1000.57 1000.25 999.97 999.77 999.57 999.41 999.25 999.05 998.89 998.69 998.57 998.45 998.45 998.53 998.57 998.65 998.73 998.85 998.97 999.01 999.13 999.29
1014.85 1014.73 1014.57 1014.41 1014.25 1014.01 1013.77 1013.53 1013.17 1012.85 1012.57 1012.37 1012.09 1011.73 1011.41 1011.13 1010.85 1010.65 1010.41 1010.21 1009.97 1009.69 1009.41 1009.05 1008.65 1008.29 1007.97 1007.69 1007.37 1006.97 1006.57 1006.05 1005.65 1005.29 1005.01 1004.69 1004.33 1003.93 1003.57 1003.17 1002.69 1002.17 1001.69 1001.25 1000.89 1000.61 1000.29 999.97 999.69 999.41 999.17 998.97 998.73 998.53 998.29 998.13 997.93 997.77 997.69 997.69 997.85 997.97 998.09 998.17 998.29 998.41 998.49 998.61 998.81
Wind_Speed
2 2 2 2 2 2 2 3 3 3 3 3 3 3 3 2 3 3 3 3 3 3 4 4 4 4 4 4 5 5 6 6 6 7 7 7 8 8 8 8 7 7 7 8 7 6 6 6 5 5 4 4 5 5 4 4 5 5 5 5 4 4 4 4 5 5 5 5 4
2 2 2 2 2 2 2 2 3 3 3 3 3 3 3 2 3 3 3 3 3 3 3 3 3 3 4 5 5 5 6 6 7 7 7 7 8 8 8 8 8 8 8 8 7 7 6 6 5 5 5 5 5 5 5 5 5 5 5 6 5 4 4 5 5 5 5 5 4
2 2 2 2 2 2 2 2 3 3 3 3 3 2 2 3 3 3 4 4 3 3 3 3 3 3 4 5 5 5 5 6 7 7 7 7 8 8 8 8 8 8 8 8 8 7 7 6 6 5 5 5 6 6 6 5 5 5 6 6 5 4 4 5 5 5 4 4 5
2 2 2 2 3 3 3 3 3 3 3 3 2 2 2 3 3 3 3 3 3 3 3 3 3 3 4 4 5 6 6 6 6 7 7 7 8 8 9 8 9 9 9 9 9 9 8 7 6 6 6 6 7 7 6 6 5 5 5 5 5 5 5 5 5 4 4 5 5
2 2 3 3 4 4 3 3 3 4 3 3 2 2 2 3 3 3 3 3 3 4 4 4 4 4 4 4 5 6 6 6 6 6 7 7 8 8 8 8 9 9 9 9 9 10 9 8 6 6 6 7 6 6 7 7 6 6 5 4 4 5 5 5 5 4 4 5 5
2 3 3 3 4 4 4 3 4 4 3 2 2 3 3 3 3 3 4 4 4 5 5 4 4 4 4 5 5 5 6 6 6 6 7 8 8 8 8 9 9 9 9 9 10 10 10 8 7 6 6 7 7 7 8 8 7 7 6 5 5 5 5 5 5 5 5 6 6
3 3 3 4 4 4 4 4 4 3 3 2 3 4 5 5 5 5 5 5 5 5 4 4 4 5 5 5 5 6 6 6 6 6 7 7 8 8 9 9 9 9 10 10 10 10 9 8 7 7 7 6 7 8 8 8 7 7 7 7 6 5 5 6 5 5 6 7 8
3 4 4 4 4 4 4 4 3 3 2 2 3 4 5 6 6 6 6 5 5 4 4 3 4 5 5 6 6 6 7 7 7 7 7 7 8 9 9 9 9 9 10 10 10 10 9 8 7 7 7 6 7 8 9 9 9 9 8 9 7 6 6 6 5 5 6 8 9
3 4 4 4 4 4 4 3 3 2 2 3 4 5 6 6 6 6 5 5 5 4 4 4 5 6 6 6 7 7 7 7 8 8 8 8 8 9 9 8 9 9 9 9 10 10 10 8 8 7 7 7 8 9 10 11 11 11 11 10 8 7 7 7 6 7 8 9 10
3 3 3 3 3 3 3 2 2 2 3 4 5 5 5 5 5 5 5 5 5 5 5 5 5 6 7 7 7 7 7 8 8 9 9 9 9 10 10 9 9 9 9 9 9 9 9 8 8 9 9 8 10 11 12 12 13 13 12 10 9 9 10 8 8 8 9 9 10
3 3 3 3 3 2 2 2 2 3 3 4 5 6 5 5 5 5 5 5 5 6 6 6 6 7 7 8 8 8 8 8 9 9 10 11 11 11 11 11 11 11 11 10 8 8 8 8 9 10 11 11 11 12 12 13 14 14 14 11 11 12 12 11 10 9 9 10 11
3 3 3 3 3 2 2 3 3 4 4 6 6 6 6 6 6 6 6 6 6 7 7 7 7 8 8 8 9 9 10 10 11 11 12 12 13 13 13 13 13 13 12 12 10 9 8 9 10 12 13 13 12 11 12 13 14 14 15 14 14 14 14 13 12 10 9 10 11
3 3 3 3 3 3 3 3 4 5 5 6 7 7 7 7 7 7 7 7 8 8 8 8 9 9 10 10 10 10 11 11 12 12 13 13 14 14 14 14 14 14 13 12 11 10 10 11 12 13 13 14 12 12 13 14 14 14 15 15 15 15 15 15 13 12 11 11 11
3 3 3 3 3 3 3 4 5 5 6 7 7 7 7 8 8 8 8 8 9 9 9 10 10 10 10 11 12 12 12 12 13 13 14 14 14 14 14 14 14 14 13 12 12 11 12 12 13 13 14 14 14 14 14 14 14 15 15 16 16 16 16 15 14 13 12 12 13
3 3 3 3 3 4 4 5 6 6 7 8 8 8 8 8 8 8 9 9 10 10 10 10 11 11 12 12 13 13 13 13 14 14 15 15 15 15 15 15 15 15 14 13 13 13 13 13 14 14 14 15 15 15 15 14 15 15 15 16 16 16 16 16 15 14 13 13 13
3 4 4 4 4 5 5 6 6 7 7 8 8 8 8 9 9 9 9 10 10 10 10 11 12 12 12 13 13 14 14 14 14 15 15 15 15 15 15 15 15 15 15 15 14 14 14 14 14 14 14 15 15 15 15 15 15 15 16 16 16 17 17 16 15 15 14 14 14
4 4 4 4 5 6 7 7 7 7 8 9 9 9 9 9 9 9 10 10 10 10 11 12 12 12 13 13 13 13 13 14 14 15 15 15 16 16 16 16 16 16 16 16 16 16 16 15 15 15 15 16 16 16 16 16 15 16 16 16 17 17 17 17 16 16 15 15 15
5 5 5 5 6 7 8 8 8 9 9 9 9 9 9 9 9 10 10 11 11 12 12 13 13 13 13 14 14 13 13 13 14 15 15 16 16 17 17 17 17 16 16 16 16 17 17 17 17 16 16 16 16 16 16 16 16 16 17 17 17 17 18 18 18 17 16 16 16
6 6 6 7 7 8 8 9 9 9 9 9 9 10 10 10 10 11 11 11 12 12 13 13 13 13 14 15 15 14 13 14 15 16 16 16 16 17 17 17 17 17 16 17 17 17 18 18 18 17 17 17 17 17 17 17 17 18 18 18 18 18 18 18 18 18 18 18 18
6 7 7 7 8 8 9 9 9 9 9 9 10 10 11 11 11 11 12 13 13 13 13 13 14 14 15 15 16 15 14 13 14 16 16 16 16 17 17 17 17 17 17 17 17 18 18 18 18 18 18 18 18 18 18 18 19 19 19 18 18 19 19 19 19 19 19 19 19
6 7 7 7 7 8 9 9 9 9 9 9 10 11 11 11 12 12 13 13 13 13 13 13 14 15 15 16 16 16 16 14 14 15 16 16 17 17 17 17 17 17 17 17 17 18 18 18 18 18 18 18 18 19 19 19 19 20 20 19 18 19 19 19 19 19 19 20 19
6 6 7 8 8 8 9 9 9 9 9 10 10 11 11 12 12 12 13 13 13 13 13 14 14 15 15 16 16 16 16 15 15 16 16 16 16 17 17 16 17 17 18 18 18 18 18 19 19 18 18 18 19 19 20 19 20 20 20 20 21 20 20 20 19 19 19 20 20
7 7 7 7 8 8 9 9 9 9 10 10 11 11 11 12 12 13 13 13 13 13 13 14 14 14 15 15 16 16 17 17 17 17 17 16 16 16 16 16 17 18 18 17 17 17 17 17 17 18 18 18 19 19 19 20 20 20 21 22 22 22 21 20 20 19 19 20 20
7 7 7 7 8 8 9 9 10 10 11 11 12 12 12 12 13 13 13 13 13 14 14 13 13 14 15 15 16 16 17 17 18 18 17 17 16 16 16 16 16 17 17 15 15 15 15 14 14 15 16 16 16 17 17 18 19 19 20 21 22 22 21 21 20 20 19 19 19
8 8 8 8 8 9 9 9 10 11 11 12 12 13 13 13 13 13 13 14 14 14 14 14 14 14 14 14 15 15 16 16 17 17 17 17 16 16 16 15 15 15 14 14 18 21 21 19 16 14 14 14 15 15 15 16 16 17 18 19 19 20 20 21 21 20 20 19 19
8 8 8 8 9 9 9 10 10 11 12 13 13 13 14 14 13 13 14 15 15 15 15 15 14 14 14 14 14 15 15 14 15 16 16 17 16 16 16 15 14 13 13 15 20 23 25 25 23 20 17 15 15 15 15 15 15 15 16 17 17 18 18 19 20 20 20 19 19
7 8 8 9 9 9 10 10 11 11 12 13 14 14 15 14 14 14 14 15 15 15 15 14 14 14 13 13 14 14 14 14 14 15 16 17 17 17 17 16 14 13 14 18 23 25 26 27 27 26 22 18 16 16 15 15 15 16 16 16 16 17 17 18 19 19 19 18 19
7 7 8 9 9 10 10 11 11 12 13 14 14 15 15 15 15 15 15 15 15 15 14 13 12 12 11 11 13 14 15 15 15 15 16 16 17 18 18 17 15 15 17 22 26 27 28 28 28 28 26 22 18 16 16 16 16 16 15 15 15 16 16 17 16 16 17 18 18
7 7 8 9 10 10 11 11 12 13 13 14 14 15 15 15 16 16 16 16 15 14 13 12 11 11 11 12 14 15 16 17 16 16 16 17 18 18 18 18 18 19 22 26 28 29 29 29 29 29 28 26 19 15 13 14 15 15 15 14 14 14 15 15 15 15 15 16 16
7 7 8 9 10 11 12 12 13 13 13 13 14 15 15 16 16 16 16 16 15 15 13 12 12 13 14 15 16 16 16 17 16 16 17 18 19 19 19 19 19 20 22 27 29 30 30 30 30 30 30 29 23 18 15 14 14 14 14 14 15 16 16 16 16 16 16 15 15
7 7 8 9 11 12 12 13 13 13 13 13 14 15 15 16 16 16 16 15 15 15 14 14 15 16 17 17 16 17 17 17 17 17 17 18 19 20 20 21 21 21 23 27 30 31 31 31 31 31 30 30 25 19 16 15 16 15 15 15 16 17 18 17 17 17 17 17 17
7 7 8 10 11 12 13 13 13 14 14 14 15 15 16 16 16 16 15 14 15 15 16 16 16 17 18 18 18 18 18 18 18 18 18 19 20 21 21 21 21 22 24 28 30 31 32 32 31 31 31 30 26 21 18 17 17 17 17 18 20 20 19 17 16 16 17 17 17
7 8 9 11 12 13 13 14 14 14 14 14 15 15 15 16 16 15 15 14 14 15 16 17 17 18 18 18 19 19 19 19 19 20 20 21 21 22 22 22 20 21 24 28 30 31 31 31 31 31 31 31 26 22 19 18 17 16 17 18 20 21 21 21 19 18 18 17 16
7 9 10 11 13 13 14 14 13 13 14 14 15 15 15 15 15 15 15 14 13 14 15 16 16 17 17 17 18 19 19 18 18 19 20 21 22 22 22 21 18 19 24 28 31 32 32 32 32 32 32 31 25 20 18 19 18 17 17 19 20 20 21 21 21 21 21 20 17
8 9 11 12 13 14 14 14 14 13 14 14 15 15 15 15 15 15 15 14 14 15 15 15 15 16 16 17 17 18 19 19 19 20 21 21 22 22 23 22 21 23 27 31 32 33 33 33 33 33 32 29 22 18 17 19 19 19 20 21 21 22 22 22 21 21 22 22 20
8 9 11 12 13 14 14 14 14 14 14 15 15 15 15 15 14 14 14 14 15 16 16 16 16 16 17 17 17 18 18 19 20 21 21 21 22 22 23 23 23 25 28 31 32 33 33 33 33 33 32 26 19 15 15 16 16 18 20 21 22 22 23 22 21 21 20 21 21
8 9 10 12 13 14 14 14 14 14 15 15 15 15 15 15 15 14 14 14 15 16 17 16 16 17 18 18 18 19 19 20 21 21 22 22 22 22 23 23 24 25 27 30 31 32 33 33 33 33 30 23 17 15 14 14 14 16 18 20 21 21 21 21 20 20 20 21 21
9 9 10 12 13 13 14 14 14 14 15 15 15 15 15 14 14 14 14 14 15 16 17 17 18 18 18 19 19 20 20 20 21 21 22 22 22 22 22 23 24 25 26 28 30 32 33 33 33 33 29 22 18 15 14 13 13 15 16 17 18 19 19 18 17 17 19 21 23
9 10 10 11 12 13 14 14 14 14 15 15 15 15 15 14 14 14 14 14 15 16 17 18 19 19 19 19 19 20 20 21 21 21 21 22 22 22 23 23 24 24 25 28 30 32 33 33 34 33 31 25 19 15 13 12 14 15 16 15 15 16 17 16 15 15 16 20 25
9 10 10 11 12 12 13 14 14 14 14 14 15 15 15 15 14 15 15 14 15 16 17 18 19 19 19 19 19 20 21 21 21 21 21 21 22 23 24 24 24 24 26 28 30 32 33 33 33 33 31 24 18 14 13 12 14 15 15 15 14 14 14 14 14 13 14 17 22
9 9 10 11 11 12 13 14 14 14 14 14 14 15 14 15 14 15 15 14 15 16 16 16 18 19 20 19 18 19 20 22 22 22 21 21 22 23 23 22 23 23 25 26 29 30 31 32 32 31 28 22 16 13 12 11 13 14 16 15 14 12 12 12 12 12 13 14 16
Wind_Direction
222 216 211 210 214 221 230 235 229 225 222 224 230 232 233 234 246 250 250 244 247 251 254 254 254 257 260 260 260 262 264 267 267 265 263 261 262 263 264 265 263 262 260 259 254 250 243 235 232 233 234 230 226 224 220 210 204 205 208 213 218 223 230 240 248 253 255 255 255
237 225 213 210 214 224 236 246 240 233 226 222 224 227 230 231 244 251 253 248 248 251 255 259 257 259 262 264 261 262 265 268 269 270 269 268 266 266 268 270 269 267 265 265 261 258 252 242 238 239 241 240 235 234 230 217 206 206 212 216 218 221 228 239 246 249 252 255 255
248 236 219 211 215 224 235 245 248 247 243 239 232 228 229 233 241 248 254 254 252 252 256 262 260 261 264 269 267 265 264 265 268 270 272 271 270 270 269 270 270 270 269 267 264 261 257 249 244 244 246 246 241 240 237 228 214 212 216 219 220 223 231 241 244 248 252 257 255
248 239 227 220 220 224 231 241 253 258 258 255 247 238 234 237 241 247 253 257 259 258 259 262 265 266 267 269 270 269 266 265 265 267 269 270 270 269 268 268 269 269 268 266 264 262 259 253 251 250 250 250 247 245 242 238 227 223 223 221 223 227 233 242 245 248 252 258 254
253 237 228 226 229 231 233 237 249 256 259 258 260 259 255 249 250 253 260 269 271 271 271 271 271 269 267 265 267 267 267 266 263 263 264 266 266 266 265 264 264 264 264 264 262 261 259 254 254 253 252 250 249 249 247 243 240 238 237 234 231 232 236 242 245 247 250 255 253
263 252 241 234 236 238 238 237 240 245 248 250 260 268 271 271 273 276 279 280 279 280 279 277 273 271 269 269 269 269 269 268 263 261 261 262 263 263 263 262 260 260 260 260 259 259 257 253 255 254 252 250 250 250 248 245 245 244 244 244 240 238 239 241 243 244 247 250 250
257 258 255 246 240 239 240 240 238 237 238 238 255 267 274 277 281 280 279 277 281 282 281 277 276 277 279 280 281 280 279 278 273 268 264 263 263 262 260 259 258 257 257 256 257 256 255 250 252 253 253 250 252 250 248 244 244 245 246 248 246 243 241 241 242 243 244 246 246
251 250 248 245 240 239 240 240 240 242 246 251 264 271 275 278 279 279 279 281 280 279 278 280 281 283 284 286 287 286 285 284 282 277 271 267 265 263 260 258 257 255 254 253 253 253 252 249 249 250 251 251 252 251 248 244 243 244 245 247 249 246 243 242 240 239 241 242 243
250 245 242 241 239 239 241 242 243 252 266 275 275 275 275 276 276 278 279 280 277 276 279 285 285 286 287 287 286 285 285 284 283 281 277 273 270 267 265 261 258 255 253 250 249 248 248 249 249 249 249 249 251 251 249 245 245 245 245 247 249 248 245 243 238 236 237 239 241
251 250 250 252 251 251 254 262 261 266 275 282 280 278 275 274 273 272 273 273 278 283 285 285 287 288 288 288 286 285 284 284 283 283 282 280 277 275 272 270 265 262 258 252 247 245 244 246 248 249 249 249 250 251 251 249 249 249 249 250 250 250 249 245 239 236 236 236 239
257 261 266 273 277 283 292 302 295 290 287 286 284 282 280 277 276 275 276 280 287 289 287 285 288 289 290 289 288 287 286 286 286 286 286 285 283 281 279 277 274 271 268 263 256 250 246 244 246 247 247 247 248 250 251 250 250 251 251 252 252 252 251 248 243 239 236 236 238
268 275 280 285 293 303 310 308 301 296 293 291 290 289 288 287 286 287 289 294 295 293 292 292 293 294 293 293 292 292 291 291 290 290 289 287 286 284 282 280 278 276 273 270 266 261 256 252 249 248 247 246 246 247 247 247 247 249 250 252 251 251 251 250 245 241 238 236 238
283 291 296 298 303 306 305 301 297 297 297 297 297 298 299 298 297 298 300 302 300 300 300 301 299 298 297 296 296 296 296 294 293 291 289 287 286 284 283 281 279 277 275 273 269 266 262 260 256 253 251 248 247 246 245 243 243 244 246 248 249 249 249 248 245 242 239 237 237
295 297 298 300 301 301 300 299 299 301 304 304 304 305 305 305 305 306 307 306 305 305 304 304 302 301 299 298 298 297 295 294 292 290 288 286 284 283 282 280 279 277 276 274 271 267 265 263 260 258 256 253 251 249 246 244 243 243 244 245 246 246 247 247 244 242 239 237 238
299 296 295 298 298 300 301 302 304 307 308 308 308 309 310 309 309 310 310 308 307 306 305 305 303 301 299 298 297 295 294 293 291 289 287 285 284 282 281 280 279 277 276 275 273 270 267 265 263 261 259 258 256 253 250 247 245 244 243 243 244 244 245 245 244 241 239 237 237
300 298 298 300 301 303 304 306 309 311 311 310 311 311 312 311 311 311 310 308 307 306 305 303 301 300 299 297 295 294 293 292 290 288 286 285 284 282 281 280 279 278 277 276 275 272 270 267 266 264 262 261 260 257 255 251 248 246 244 243 243 243 244 243 242 241 239 236 236
300 300 300 302 304 306 308 310 311 312 312 311 312 312 311 311 311 310 309 307 306 305 303 301 299 298 298 296 295 294 293 291 289 287 285 284 283 283 281 280 279 279 278 277 276 274 273 270 269 267 265 264 263 261 259 256 253 250 247 245 244 243 243 242 241 240 239 237 236
301 301 302 305 307 309 310 311 312 312 311 311 311 310 310 310 309 308 306 304 303 302 300 298 297 296 295 294 293 292 291 289 288 286 284 283 283 282 281 280 279 279 278 277 276 275 273 272 271 269 268 266 265 264 262 259 257 254 251 248 246 244 243 242 241 240 239 237 236
300 302 305 308 309 310 311 311 311 311 310 310 309 309 308 307 306 304 303 302 300 299 298 297 296 294 293 292 291 290 288 287 286 284 283 282 281 281 280 280 279 279 278 277 276 275 274 273 272 271 269 268 266 265 263 262 260 258 255 253 250 247 244 242 241 240 239 239 238
301 304 307 308 309 310 310 310 309 309 308 308 308 307 305 304 303 301 300 298 298 297 296 294 293 292 292 291 290 289 287 285 284 283 282 281 281 280 280 280 280 279 278 277 275 274 274 273 273 272 270 269 268 266 265 263 262 260 258 256 253 250 247 244 241 239 238 238 238
302 304 306 307 308 307 307 306 306 306 306 306 305 303 302 301 300 298 296 295 296 296 294 292 291 290 290 290 289 288 287 285 284 283 282 282 281 280 280 280 280 279 278 277 276 275 274 274 273 272 271 270 268 267 265 264 263 261 260 258 255 253 250 247 243 240 238 237 236
301 303 304 305 304 304 304 304 305 305 304 303 302 300 299 298 297 295 294 294 294 293 292 290 289 288 288 288 288 288 287 286 284 283 282 281 281 281 281 281 280 279 278 276 275 275 274 273 272 271 270 269 267 266 264 263 262 261 260 259 257 255 253 250 247 243 240 238 236
299 300 301 302 302 302 303 304 304 304 303 301 300 299 298 296 295 294 294 294 293 291 290 289 288 288 287 286 286 286 286 286 284 282 281 280 280 280 280 280 279 277 276 275 274 273 272 271 270 268 267 265 264 263 261 260 259 259 258 258 257 256 255 253 250 247 243 240 238
297 298 300 301 302 303 303 304 304 303 302 301 300 299 297 296 295 295 294 293 292 291 290 289 288 287 287 286 285 284 284 283 283 283 282 280 279 279 279 279 278 276 275 274 273 271 270 269 268 267 265 263 262 260 258 257 256 255 255 255 255 254 254 252 251 248 245 241 239
296 297 298 300 301 302 303 304 304 303 302 301 300 299 298 296 296 295 295 294 293 291 291 290 289 289 288 287 285 283 282 281 281 282 282 282 280 280 280 280 279 277 276 274 273 272 271 270 269 269 268 266 265 263 261 258 255 254 253 253 252 252 251 251 249 247 245 242 239
296 297 298 299 300 302 302 302 302 301 300 300 300 300 299 297 296 296 295 294 293 293 293 292 291 290 289 287 285 284 282 281 281 282 283 284 284 283 282 281 280 279 277 276 275 275 274 273 271 271 270 270 270 268 267 264 260 257 256 254 253 251 250 249 247 245 243 241 238
297 297 298 299 301 302 301 301 301 301 301 301 301 300 299 299 298 297 296 295 294 294 294 293 292 291 289 287 286 285 285 284 285 285 286 286 286 286 285 283 280 278 276 275 275 275 274 272 271 269 268 267 267 266 266 266 265 263 261 259 256 254 251 249 248 245 243 241 238
295 296 298 301 302 301 301 302 302 302 302 301 301 300 299 299 298 297 296 295 295 296 296 295 293 292 290 289 289 289 289 290 290 289 289 287 286 285 283 282 279 277 275 275 274 274 273 271 270 268 266 264 263 262 262 262 262 262 261 260 258 256 253 251 249 246 244 242 239
294 297 299 302 301 301 302 303 303 302 302 301 300 300 300 300 299 298 297 297 298 298 297 296 296 295 294 293 293 293 293 292 291 290 289 287 285 283 282 281 279 277 276 276 275 274 273 272 270 268 266 264 261 259 257 256 256 256 255 255 255 254 253 251 249 247 245 243 241
296 298 300 301 302 302 303 303 302 302 302 301 301 301 301 300 299 299 299 300 299 298 298 298 298 296 295 294 295 294 293 292 291 289 288 286 285 283 282 281 279 277 276 276 275 274 273 272 270 269 267 264 261 259 256 253 252 251 251 251 251 251 252 252 250 247 244 241 239
298 301 302 302 303 303 302 303 303 303 302 302 302 302 301 300 300 300 300 301 300 299 299 298 297 295 294 294 294 293 292 291 290 289 287 285 284 283 282 281 279 277 276 276 276 275 274 272 271 269 267 264 261 258 254 252 250 249 248 247 247 248 249 250 250 248 244 239 236
302 304 304 304 303 303 303 304 304 304 303 303 302 301 300 300 300 300 300 301 301 301 301 300 298 297 296 296 294 293 292 292 290 288 286 285 284 283 282 280 279 277 276 276 276 275 274 273 271 270 267 265 261 258 253 251 249 248 247 246 245 245 244 245 247 247 246 242 236
306 306 306 305 304 304 304 305 305 304 304 303 301 301 300 301 301 302 302 302 302 301 301 300 299 298 297 297 296 294 293 291 289 287 286 284 283 282 281 280 279 277 277 277 276 276 275 274 273 271 269 266 262 258 253 249 248 246 244 243 243 242 241 241 242 244 245 246 243
309 309 308 306 305 305 305 305 305 304 303 302 301 301 301 302 303 304 304 304 303 301 299 298 297 296 295 295 293 293 291 289 288 286 285 284 283 282 281 280 278 277 277 278 277 277 276 276 274 273 270 268 264 259 252 248 246 244 242 241 241 240 238 237 238 239 241 243 245
312 310 309 307 306 305 305 305 305 305 303 302 302 302 303 303 303 303 303 303 302 301 299 297 296 294 293 292 291 290 289 288 287 286 285 284 284 283 281 280 278 278 278 279 279 278 278 277 276 274 272 269 265 258 251 247 245 243 241 240 239 238 237 236 236 236 236 238 240
311 310 307 305 305 305 305 306 306 305 304 303 303 303 304 304 303 302 302 303 303 302 300 298 297 295 294 293 292 290 289 288 287 287 286 285 284 283 282 281 280 280 280 280 280 279 279 278 277 275 274 271 265 257 250 246 243 241 239 238 237 236 235 234 233 233 232 233 234
309 307 306 304 304 305 305 305 305 305 304 303 302 303 303 304 304 304 305 305 304 303 301 300 298 297 295 295 294 292 290 288 288 287 287 286 285 284 283 282 282 281 281 281 281 281 280 279 278 276 275 271 265 257 250 245 242 239 237 236 235 234 232 232 231 231 230 229 230
308 306 305 304 303 304 304 305 304 303 302 302 302 302 303 304 305 306 306 306 304 303 302 301 299 297 296 295 294 292 290 288 288 287 286 286 285 284 284 284 283 283 282 282 282 282 281 280 279 278 276 272 266 258 251 244 240 237 236 234 234 232 230 229 228 227 227 226 226
307 306 304 303 302 302 302 302 301 300 300 301 302 303 304 305 305 305 306 305 303 302 301 300 298 297 296 295 294 293 291 289 288 287 286 286 285 285 284 284 283 283 283 283 283 283 282 281 280 279 277 273 267 260 251 243 239 236 234 232 232 231 228 226 224 223 223 223 224
305 304 303 301 300 300 300 299 299 298 299 300 301 303 304 306 305 304 304 303 302 300 299 297 297 296 296 296 295 294 292 291 290 288 287 286 285 286 285 285 284 284 284 284 284 283 283 282 281 280 278 275 268 260 250 242 237 234 231 229 228 227 226 223 221 220 220 220 222
304 303 302 299 298 298 298 298 297 297 298 299 300 302 304 305 304 304 304 303 301 300 298 297 296 296 296 296 295 294 293 292 291 290 289 287 287 286 286 285 285 284 284 284 284 284 283 283 282 282 281 279 272 263 252 242 236 232 228 225 223 222 222 220 218 217 217 216 217